Home > Weather > Tilburg > Past weeks

Flag for Netherlands Past Weather in Tilburg, Netherlands — Yesterday and Last 2 Weeks

Now
59 °F

Fog.


Feels Like: 59 °F
Forecast: 60 / 65 °F
Wind: 5 mph from Southwest

Location: Gilze-Rijen

Current Time: Jun 30, 2016 at 11:26:25 PM

Latest Report: Jun 30, 2016 at 10:55 PM


Visibility: 6 mi

Pressure: 29.89 "Hg

Humidity: 94%

Dew Point: 57 °F

Location of TilburgLocation

Past Weather in Tilburg — Graph

°F

Tilburg Temperature Yesterday

Maximum temperature yesterday: 70 °F (at 5:25 PM)
Minimum temperature yesterday: 57 °F (at 12:25 AM)
Average temperature yesterday: 61 °F

High & Low Weather Summary for the Past Weeks

 TemperatureHumidityPressure
High86 °F (Jun 23, 4:55 PM)100% (Jun 15, 11:25 PM)30.27 "Hg (Jun 15, 11:25 PM)
Low46 °F (Jun 16, 4:55 AM)47% (Jun 24, 5:25 PM)29.53 "Hg (Jun 15, 9:25 PM)
Average62 °F85%29.96 "Hg
* Reported Jun 15 9:25 PM — Jun 30 9:55 PM, Tilburg, Weather by CustomWeather, © 2016

Note: Actual official high and low records may vary slightly from our data, if they occured in-between our weather recording intervals... More about our weather records

Advertising

Tilburg Weather History for the Previous 24 Hours

Scroll right to see more
 ConditionsComfort  
Time TempWeatherWind HumidityBarometerVisibility
9:55 PM
Thu, Jun 30
63 °FMore clouds than sun.2 mph94%29.89 "HgN/A
9:25 PM64 °FDrizzle. Partly sunny.5 mph88%29.86 "HgN/A
8:55 PM64 °FBroken clouds.3 mph94%29.86 "HgN/A
8:25 PM66 °FOvercast.3 mph88%29.86 "HgN/A
7:56 PM64 °FBroken clouds.5 mph94%29.86 "HgN/A
7:55 PM64 °FLight rain. Broken clouds.5 mph94%29.86 "HgN/A
7:25 PM64 °FMostly cloudy.5 mph94%29.86 "HgN/A
7:01 PM64 °FSprinkles. Cloudy.8 mph94%29.86 "Hg6 mi
6:55 PM66 °FRain. Broken clouds.8 mph83%29.86 "HgN/A
6:25 PM66 °FMore clouds than sun.13 mph83%29.86 "HgN/A
5:55 PM66 °FPartly sunny.12 mph83%29.86 "HgN/A
5:25 PM66 °FMore clouds than sun.14 mph88%29.86 "HgN/A
4:55 PM64 °FDrizzle. Broken clouds.14 mph94%29.86 "HgN/A
4:25 PM66 °FBroken clouds.14 mph83%29.86 "HgN/A
3:56 PM66 °FMostly cloudy.15 mph78%29.86 "HgN/A
3:25 PM64 °FCloudy.14 mph83%29.86 "HgN/A
2:55 PM63 °FPartly sunny.15 mph88%29.86 "HgN/A
1:25 PM63 °FLight rain. Broken clouds.12 mph88%29.86 "HgN/A
1:01 PM63 °FLight rain. Broken clouds.13 mph88%29.86 "HgN/A
12:55 PM63 °FDrizzle. Broken clouds.14 mph88%29.86 "HgN/A
12:25 PM63 °FCloudy.13 mph83%29.86 "HgN/A
11:55 AM63 °FLight rain. Mostly cloudy.10 mph88%29.86 "HgN/A
11:25 AM63 °FBroken clouds.10 mph88%29.86 "HgN/A
10:55 AM63 °FMostly cloudy.12 mph83%29.86 "HgN/A
10:25 AM61 °FBroken clouds.9 mph88%29.86 "HgN/A
9:55 AM61 °FBroken clouds.10 mph88%29.86 "HgN/A
9:25 AM59 °FPartly sunny.9 mph94%29.86 "HgN/A
8:55 AM59 °FDrizzle. Broken clouds.8 mph94%29.86 "HgN/A
8:25 AM59 °FRain showers. Mostly cloudy.5 mph94%29.83 "Hg3 mi
7:55 AM59 °FDrizzle. Broken clouds.8 mph94%29.83 "Hg6 mi
7:25 AM59 °FDrizzle. More clouds than sun.8 mph94%29.83 "Hg6 mi
7:02 AM59 °FDrizzle. Broken clouds.8 mph94%29.83 "Hg4 mi
6:25 AM59 °FDrizzle. Mostly cloudy.7 mph94%29.83 "HgN/A
5:55 AM59 °FDrizzle. Overcast.7 mph94%29.83 "HgN/A
5:25 AM59 °FDrizzle. Overcast.8 mph94%29.80 "HgN/A
4:55 AM59 °FDrizzle. Mostly cloudy.9 mph88%29.80 "HgN/A
4:25 AM59 °FMostly cloudy.9 mph88%29.80 "HgN/A
3:55 AM57 °FMostly cloudy.8 mph94%29.80 "HgN/A
3:25 AM59 °FMostly cloudy.8 mph94%29.80 "HgN/A
2:55 AM59 °FOvercast.7 mph94%29.83 "HgN/A
2:25 AM59 °FFog.6 mph94%29.83 "Hg6 mi
1:55 AM57 °FFog.5 mph100%29.83 "Hg5 mi
1:25 AM59 °FFog.6 mph94%29.83 "Hg5 mi
12:55 AM59 °FFog.3 mph94%29.83 "Hg6 mi
12:25 AM59 °FFog.3 mph94%29.83 "Hg5 mi
11:55 PM
Wed, Jun 29
59 °FLight rain. Partly cloudy.2 mph94%29.83 "Hg6 mi
11:25 PM57 °FDrizzle. Overcast.2 mph100%29.86 "Hg5 mi
11:04 PM59 °FDrizzle. Mostly cloudy.2 mph94%29.86 "Hg4 mi
Weather by CustomWeather, © 2016

See weather overviewHow to use our weather pages